Year,Month,Day,Hour,Minute,Value (Times are PST for windgust in km/hr)
2015,11,17,00,00,9.60
2015,11,17,00,01,12.90
2015,11,17,00,02,12.90
2015,11,17,00,03,12.90
2015,11,17,00,04,6.40
2015,11,17,00,05,11.30
2015,11,17,00,06,9.60
2015,11,17,00,07,6.40
2015,11,17,00,08,9.60
2015,11,17,00,09,9.60
2015,11,17,00,10,8.10
2015,11,17,00,11,9.60
2015,11,17,00,12,9.60
2015,11,17,00,13,8.10
2015,11,17,00,14,6.40
2015,11,17,00,15,6.40
2015,11,17,00,16,6.40
2015,11,17,00,17,14.50
2015,11,17,00,18,9.60
2015,11,17,00,19,17.70
2015,11,17,00,20,11.30
2015,11,17,00,21,16.10
2015,11,17,00,22,17.70
2015,11,17,00,23,16.10
2015,11,17,00,24,19.30
2015,11,17,00,25,17.70
2015,11,17,00,26,19.30
2015,11,17,00,27,16.10
2015,11,17,00,28,14.50
2015,11,17,00,29,16.10
2015,11,17,00,30,19.30
2015,11,17,00,31,11.30
2015,11,17,00,32,22.50
2015,11,17,00,33,25.70
2015,11,17,00,34,17.70
2015,11,17,00,35,20.90
2015,11,17,00,36,9.60
2015,11,17,00,37,17.70
2015,11,17,00,38,17.70
2015,11,17,00,39,19.30
2015,11,17,00,40,12.90
2015,11,17,00,41,9.60
2015,11,17,00,42,19.30
2015,11,17,00,43,24.20
2015,11,17,00,44,22.50
2015,11,17,00,45,22.50
2015,11,17,00,46,24.20
2015,11,17,00,47,22.50
2015,11,17,00,48,29.00
2015,11,17,00,49,20.90
2015,11,17,00,50,22.50
2015,11,17,00,51,30.60
2015,11,17,00,52,20.90
2015,11,17,00,53,19.30
2015,11,17,00,54,27.40
2015,11,17,00,55,11.30
2015,11,17,00,56,25.70
2015,11,17,00,57,25.70
2015,11,17,00,58,19.30
2015,11,17,00,59,20.90
2015,11,17,01,00,27.40
2015,11,17,01,01,17.70
2015,11,17,01,02,19.30
2015,11,17,01,03,9.60
2015,11,17,01,04,9.60
2015,11,17,01,05,9.60
2015,11,17,01,06,8.10
2015,11,17,01,07,14.50
2015,11,17,01,08,16.10
2015,11,17,01,09,11.30
2015,11,17,01,10,14.50
2015,11,17,01,11,9.60
2015,11,17,01,12,9.60
2015,11,17,01,13,14.50
2015,11,17,01,14,8.10
2015,11,17,01,15,9.60
2015,11,17,01,16,12.90
2015,11,17,01,17,9.60
2015,11,17,01,18,4.80
2015,11,17,01,19,4.80
2015,11,17,01,20,8.10
2015,11,17,01,21,11.30
2015,11,17,01,22,8.10
2015,11,17,01,23,6.40
2015,11,17,01,24,9.60
2015,11,17,01,25,9.60
2015,11,17,01,26,9.60
2015,11,17,01,27,11.30
2015,11,17,01,28,12.90
2015,11,17,01,29,11.30
2015,11,17,01,30,14.50
2015,11,17,01,31,11.30
2015,11,17,01,32,9.60
2015,11,17,01,33,16.10
2015,11,17,01,34,14.50
2015,11,17,01,35,14.50
2015,11,17,01,36,16.10
2015,11,17,01,37,12.90
2015,11,17,01,38,16.10
2015,11,17,01,39,17.70
2015,11,17,01,40,14.50
2015,11,17,01,41,17.70
2015,11,17,01,42,16.10
2015,11,17,01,43,11.30
2015,11,17,01,44,8.10
2015,11,17,01,45,6.40
2015,11,17,01,46,14.50
2015,11,17,01,47,11.30
2015,11,17,01,48,14.50
2015,11,17,01,49,14.50
2015,11,17,01,50,11.30
2015,11,17,01,51,11.30
2015,11,17,01,52,8.10
2015,11,17,01,53,11.30
2015,11,17,01,54,11.30
2015,11,17,01,55,6.40
2015,11,17,01,57,6.40
2015,11,17,01,59,1.60
2015,11,17,02,00,4.80
2015,11,17,02,01,6.40
2015,11,17,02,02,6.40
2015,11,17,02,03,1.60
2015,11,17,02,04,6.40
2015,11,17,02,05,1.60
2015,11,17,02,06,3.20
2015,11,17,02,07,1.60
2015,11,17,02,08,1.60
2015,11,17,02,14,3.20
2015,11,17,02,15,9.60
2015,11,17,02,16,6.40
2015,11,17,02,17,4.80
2015,11,17,02,18,8.10
2015,11,17,02,19,6.40
2015,11,17,02,20,8.10
2015,11,17,02,21,6.40
2015,11,17,02,22,9.60
2015,11,17,02,23,11.30
2015,11,17,02,24,9.60
2015,11,17,02,25,8.10
2015,11,17,02,26,9.60
2015,11,17,02,27,9.60
2015,11,17,02,28,9.60
2015,11,17,02,29,16.10
2015,11,17,02,30,16.10
2015,11,17,02,31,16.10
2015,11,17,02,32,14.50
2015,11,17,02,33,16.10
2015,11,17,02,34,14.50
2015,11,17,02,35,11.30
2015,11,17,02,36,14.50
2015,11,17,02,37,22.50
2015,11,17,02,38,16.10
2015,11,17,02,39,14.50
2015,11,17,02,40,17.70
2015,11,17,02,41,16.10
2015,11,17,02,42,11.30
2015,11,17,02,43,14.50
2015,11,17,02,44,17.70
2015,11,17,02,45,17.70
2015,11,17,02,46,16.10
2015,11,17,02,47,9.60
2015,11,17,02,48,20.90
2015,11,17,02,49,17.70
2015,11,17,02,50,11.30
2015,11,17,02,51,17.70
2015,11,17,02,52,16.10
2015,11,17,02,53,16.10
2015,11,17,02,54,16.10
2015,11,17,02,55,16.10
2015,11,17,02,56,9.60
2015,11,17,02,57,14.50
2015,11,17,02,58,16.10
2015,11,17,02,59,14.50
2015,11,17,03,00,17.70
2015,11,17,03,01,17.70
2015,11,17,03,02,14.50
2015,11,17,03,03,17.70
2015,11,17,03,04,16.10
2015,11,17,03,05,17.70
2015,11,17,03,06,17.70
2015,11,17,03,07,17.70
2015,11,17,03,08,19.30
2015,11,17,03,09,20.90
2015,11,17,03,10,14.50
2015,11,17,03,11,17.70
2015,11,17,03,12,24.20
2015,11,17,03,13,17.70
2015,11,17,03,14,24.20
2015,11,17,03,15,22.50
2015,11,17,03,16,24.20
2015,11,17,03,17,16.10
2015,11,17,03,18,27.40
2015,11,17,03,19,25.70
2015,11,17,03,20,22.50
2015,11,17,03,21,19.30
2015,11,17,03,22,19.30
2015,11,17,03,23,24.20
2015,11,17,03,24,22.50
2015,11,17,03,25,19.30
2015,11,17,03,26,17.70
2015,11,17,03,27,16.10
2015,11,17,03,28,12.90
2015,11,17,03,29,8.10
2015,11,17,03,30,1.60
2015,11,17,03,32,6.40
2015,11,17,03,33,6.40
2015,11,17,03,34,4.80
2015,11,17,03,35,1.60
2015,11,17,03,37,8.10
2015,11,17,03,38,8.10
2015,11,17,03,39,6.40
2015,11,17,03,40,14.50
2015,11,17,03,41,17.70
2015,11,17,03,42,11.30
2015,11,17,03,43,14.50
2015,11,17,03,44,14.50
2015,11,17,03,45,6.40
2015,11,17,03,46,3.20
2015,11,17,03,47,6.40
2015,11,17,03,49,4.80
2015,11,17,03,50,11.30
2015,11,17,03,51,6.40
2015,11,17,03,52,6.40
2015,11,17,03,53,4.80
2015,11,17,03,54,8.10
2015,11,17,03,55,11.30
2015,11,17,03,56,16.10
2015,11,17,03,57,17.70
2015,11,17,03,58,16.10
2015,11,17,03,59,11.30
2015,11,17,04,00,16.10
2015,11,17,04,01,11.30
2015,11,17,04,02,11.30
2015,11,17,04,03,9.60
2015,11,17,04,04,11.30
2015,11,17,04,05,19.30
2015,11,17,04,06,25.70
2015,11,17,04,07,14.50
2015,11,17,04,08,17.70
2015,11,17,04,09,19.30
2015,11,17,04,10,24.20
2015,11,17,04,11,16.10
2015,11,17,04,12,22.50
2015,11,17,04,13,17.70
2015,11,17,04,14,27.40
2015,11,17,04,15,27.40
2015,11,17,04,16,22.50
2015,11,17,04,17,16.10
2015,11,17,04,18,8.10
2015,11,17,04,19,8.10
2015,11,17,04,20,14.50
2015,11,17,04,21,11.30
2015,11,17,04,22,16.10
2015,11,17,04,23,14.50
2015,11,17,04,24,17.70
2015,11,17,04,25,9.60
2015,11,17,04,26,19.30
2015,11,17,04,27,20.90
2015,11,17,04,28,17.70
2015,11,17,04,29,17.70
2015,11,17,04,30,16.10
2015,11,17,04,31,17.70
2015,11,17,04,32,24.20
2015,11,17,04,33,32.20
2015,11,17,04,34,33.80
2015,11,17,04,35,25.70
2015,11,17,04,36,27.40
2015,11,17,04,37,27.40
2015,11,17,04,38,22.50
2015,11,17,04,39,16.10
2015,11,17,04,40,16.10
2015,11,17,04,41,14.50
2015,11,17,04,42,20.90
2015,11,17,04,43,20.90
2015,11,17,04,44,16.10
2015,11,17,04,45,20.90
2015,11,17,04,46,22.50
2015,11,17,04,47,16.10
2015,11,17,04,48,11.30
2015,11,17,04,49,11.30
2015,11,17,04,50,19.30
2015,11,17,04,51,12.90
2015,11,17,04,52,17.70
2015,11,17,04,53,14.50
2015,11,17,04,54,8.10
2015,11,17,04,55,11.30
2015,11,17,04,56,16.10
2015,11,17,04,57,8.10
2015,11,17,04,58,4.80
2015,11,17,04,59,16.10
2015,11,17,05,00,9.60
2015,11,17,05,01,20.90
2015,11,17,05,02,16.10
2015,11,17,05,03,11.30
2015,11,17,05,04,12.90
2015,11,17,05,05,11.30
2015,11,17,05,06,14.50
2015,11,17,05,07,8.10
2015,11,17,05,08,6.40
2015,11,17,05,09,16.10
2015,11,17,05,10,6.40
2015,11,17,05,11,8.10
2015,11,17,05,12,14.50
2015,11,17,05,13,11.30
2015,11,17,05,14,11.30
2015,11,17,05,15,9.60
2015,11,17,05,16,11.30
2015,11,17,05,17,9.60
2015,11,17,05,18,11.30
2015,11,17,05,19,14.50
2015,11,17,05,20,19.30
2015,11,17,05,21,16.10
2015,11,17,05,22,9.60
2015,11,17,05,23,8.10
2015,11,17,05,24,12.90
2015,11,17,05,25,11.30
2015,11,17,05,26,9.60
2015,11,17,05,27,8.10
2015,11,17,05,28,14.50
2015,11,17,05,29,9.60
2015,11,17,05,30,16.10
2015,11,17,05,31,11.30
2015,11,17,05,32,16.10
2015,11,17,05,33,14.50
2015,11,17,05,34,17.70
2015,11,17,05,35,16.10
2015,11,17,05,36,9.60
2015,11,17,05,37,9.60
2015,11,17,05,38,9.60
2015,11,17,05,39,17.70
2015,11,17,05,40,17.70
2015,11,17,05,41,14.50
2015,11,17,05,42,9.60
2015,11,17,05,43,9.60
2015,11,17,05,44,11.30
2015,11,17,05,45,11.30
2015,11,17,05,46,9.60
2015,11,17,05,47,20.90
2015,11,17,05,48,17.70
2015,11,17,05,49,20.90
2015,11,17,05,50,12.90
2015,11,17,05,51,12.90
2015,11,17,05,52,12.90
2015,11,17,05,53,12.90
2015,11,17,05,54,12.90
2015,11,17,05,55,12.90
2015,11,17,05,56,12.90
2015,11,17,05,57,12.90
2015,11,17,05,58,12.90
2015,11,17,05,59,12.90
2015,11,17,09,22,30.60
2015,11,17,09,23,46.70
2015,11,17,09,24,51.50
2015,11,17,09,25,53.10
2015,11,17,09,26,33.80
2015,11,17,09,27,32.20
2015,11,17,09,28,41.80
2015,11,17,09,29,40.20
2015,11,17,09,30,41.80
2015,11,17,09,31,51.50
2015,11,17,09,32,53.10
2015,11,17,09,33,32.20
2015,11,17,09,34,61.20
2015,11,17,09,35,49.90
2015,11,17,09,36,53.10
2015,11,17,09,37,48.30
2015,11,17,09,38,53.10
2015,11,17,09,39,45.10
2015,11,17,09,40,38.60
2015,11,17,09,41,38.60
2015,11,17,09,42,33.80
2015,11,17,09,43,43.50
2015,11,17,09,44,43.50
2015,11,17,09,45,29.00
2015,11,17,09,46,41.80
2015,11,17,09,47,53.10
2015,11,17,09,48,45.10
2015,11,17,09,49,46.70
2015,11,17,09,50,41.80
2015,11,17,09,51,46.70
2015,11,17,09,52,41.80
2015,11,17,09,53,54.70
2015,11,17,09,54,43.50
2015,11,17,09,55,49.90
2015,11,17,09,56,46.70
2015,11,17,09,57,53.10
2015,11,17,09,58,51.50
2015,11,17,09,59,43.50
2015,11,17,10,00,56.30
2015,11,17,10,01,38.60
2015,11,17,10,02,35.40
2015,11,17,10,03,43.50
2015,11,17,10,04,49.90
2015,11,17,10,05,45.10
2015,11,17,10,06,43.50
2015,11,17,10,07,37.00
2015,11,17,10,08,37.00
2015,11,17,10,09,49.90
2015,11,17,10,10,59.50
2015,11,17,10,11,38.60
2015,11,17,10,12,48.30
2015,11,17,10,13,56.30
2015,11,17,10,14,45.10
2015,11,17,10,15,45.10
2015,11,17,10,16,57.90
2015,11,17,10,17,41.80
2015,11,17,10,18,53.10
2015,11,17,10,19,41.80
2015,11,17,10,20,33.80
2015,11,17,10,21,56.30
2015,11,17,10,22,48.30
2015,11,17,10,23,49.90
2015,11,17,10,24,66.00
2015,11,17,10,25,56.30
2015,11,17,10,26,40.20
2015,11,17,10,27,53.10
2015,11,17,10,30,51.50
2015,11,17,10,31,49.90
2015,11,17,10,32,43.50
2015,11,17,10,33,64.40
2015,11,17,10,34,53.10
2015,11,17,10,35,45.10
2015,11,17,10,36,45.10
2015,11,17,10,37,53.10
2015,11,17,10,38,49.90
2015,11,17,10,39,64.40
2015,11,17,10,40,43.50
2015,11,17,10,41,54.70
2015,11,17,10,42,49.90
2015,11,17,10,43,51.50
2015,11,17,10,44,53.10
2015,11,17,10,45,51.50
2015,11,17,10,46,64.40
2015,11,17,10,47,46.70
2015,11,17,10,48,32.20
2015,11,17,10,49,62.70
2015,11,17,10,50,32.20
2015,11,17,10,51,54.70
2015,11,17,10,52,38.60
2015,11,17,10,53,48.30
2015,11,17,10,54,48.30
2015,11,17,10,55,53.10
2015,11,17,10,56,53.10
2015,11,17,10,57,67.60
2015,11,17,10,58,53.10
2015,11,17,10,59,51.50
2015,11,17,11,00,51.50
2015,11,17,11,01,54.70
2015,11,17,11,02,51.50
2015,11,17,11,03,48.30
2015,11,17,11,04,46.70
2015,11,17,11,05,38.60
2015,11,17,11,06,43.50
2015,11,17,11,07,59.50
2015,11,17,11,08,40.20
2015,11,17,11,09,38.60
2015,11,17,11,10,62.70
2015,11,17,11,11,61.20
2015,11,17,11,12,53.10
2015,11,17,11,13,41.80
2015,11,17,11,14,53.10
2015,11,17,11,15,54.70
2015,11,17,11,16,54.70
2015,11,17,11,17,53.10
2015,11,17,11,18,53.10
2015,11,17,11,19,45.10
2015,11,17,11,20,66.00
2015,11,17,11,21,51.50
2015,11,17,11,22,54.70
2015,11,17,11,23,46.70
2015,11,17,11,24,46.70
2015,11,17,11,25,56.30
2015,11,17,11,26,40.20
2015,11,17,11,27,53.10
2015,11,17,11,28,48.30
2015,11,17,11,29,53.10
2015,11,17,11,30,49.90
2015,11,17,11,31,37.00
2015,11,17,11,32,45.10
2015,11,17,11,33,54.70
2015,11,17,11,34,38.60
2015,11,17,11,35,48.30
2015,11,17,11,36,51.50
2015,11,17,11,37,45.10
2015,11,17,11,38,37.00
2015,11,17,11,39,45.10
2015,11,17,11,40,48.30
2015,11,17,11,41,57.90
2015,11,17,11,42,74.00
2015,11,17,11,43,64.40
2015,11,17,11,44,64.40
2015,11,17,11,45,46.70
2015,11,17,11,46,64.40
2015,11,17,11,47,57.90
2015,11,17,11,48,59.50
2015,11,17,11,49,51.50
2015,11,17,11,50,40.20
2015,11,17,11,51,45.10
2015,11,17,11,52,48.30
2015,11,17,11,53,53.10
2015,11,17,11,54,57.90
2015,11,17,11,55,51.50
2015,11,17,11,56,53.10
2015,11,17,11,57,59.50
2015,11,17,11,58,53.10
2015,11,17,11,59,35.40
2015,11,17,12,00,48.30
2015,11,17,12,01,40.20
2015,11,17,12,02,53.10
2015,11,17,12,03,40.20
2015,11,17,12,04,32.20
2015,11,17,12,05,20.90
2015,11,17,12,06,61.20
2015,11,17,12,07,41.80
2015,11,17,12,08,38.60
2015,11,17,12,09,33.80
2015,11,17,12,10,45.10
2015,11,17,12,11,56.30
2015,11,17,12,12,37.00
2015,11,17,12,13,25.70
2015,11,17,12,14,30.60
2015,11,17,12,15,32.20
2015,11,17,12,16,41.80
2015,11,17,12,17,56.30
2015,11,17,12,18,51.50
2015,11,17,12,19,57.90
2015,11,17,12,20,49.90
2015,11,17,12,21,35.40
2015,11,17,12,22,37.00
2015,11,17,12,23,33.80
2015,11,17,12,24,45.10
2015,11,17,12,25,38.60
2015,11,17,12,26,53.10
2015,11,17,12,27,32.20
2015,11,17,12,28,29.00
2015,11,17,12,29,24.20
2015,11,17,12,30,25.70
2015,11,17,12,31,33.80
2015,11,17,12,32,40.20
2015,11,17,12,33,40.20
2015,11,17,12,34,48.30
2015,11,17,12,35,48.30
2015,11,17,12,36,57.90
2015,11,17,12,37,33.80
2015,11,17,12,38,35.40
2015,11,17,12,39,53.10
2015,11,17,12,40,35.40
2015,11,17,12,41,45.10
2015,11,17,12,42,35.40
2015,11,17,12,43,29.00
2015,11,17,12,44,35.40
2015,11,17,12,45,53.10
2015,11,17,12,46,37.00
2015,11,17,12,47,51.50
2015,11,17,12,48,32.20
2015,11,17,12,49,33.80
2015,11,17,12,50,27.40
2015,11,17,12,51,37.00
2015,11,17,12,52,41.80
2015,11,17,12,53,45.10
2015,11,17,12,54,46.70
2015,11,17,12,55,53.10
2015,11,17,12,56,41.80
2015,11,17,12,57,35.40
2015,11,17,12,58,40.20
2015,11,17,12,59,48.30
2015,11,17,13,00,37.00
2015,11,17,13,01,48.30
2015,11,17,13,02,41.80
2015,11,17,13,03,38.60
2015,11,17,13,04,32.20
2015,11,17,13,05,41.80
2015,11,17,13,06,38.60
2015,11,17,13,07,62.70
2015,11,17,13,08,43.50
2015,11,17,13,09,40.20
2015,11,17,13,10,38.60
2015,11,17,13,11,35.40
2015,11,17,13,12,33.80
2015,11,17,13,13,38.60
2015,11,17,13,14,40.20
2015,11,17,13,15,53.10
2015,11,17,13,16,41.80
2015,11,17,13,17,62.70
2015,11,17,13,18,54.70
2015,11,17,13,19,53.10
2015,11,17,13,20,37.00
2015,11,17,13,21,45.10
2015,11,17,13,22,51.50
2015,11,17,13,23,45.10
2015,11,17,13,24,33.80
2015,11,17,13,25,30.60
2015,11,17,13,26,40.20
2015,11,17,13,27,24.20
2015,11,17,13,28,43.50
2015,11,17,13,29,48.30
2015,11,17,13,30,37.00
2015,11,17,13,31,53.10
2015,11,17,13,32,46.70
2015,11,17,13,33,37.00
2015,11,17,13,34,35.40
2015,11,17,13,35,53.10
2015,11,17,13,36,35.40
2015,11,17,13,37,25.70
2015,11,17,13,38,38.60
2015,11,17,13,39,40.20
2015,11,17,13,40,37.00
2015,11,17,13,41,35.40
2015,11,17,13,42,38.60
2015,11,17,13,43,38.60
2015,11,17,13,44,32.20
2015,11,17,13,45,29.00
2015,11,17,13,46,40.20
2015,11,17,13,47,38.60
2015,11,17,13,48,40.20
2015,11,17,13,49,46.70
2015,11,17,13,50,69.20
2015,11,17,13,51,51.50
2015,11,17,13,52,45.10
2015,11,17,13,53,38.60
2015,11,17,13,54,35.40
2015,11,17,13,55,45.10
2015,11,17,13,56,43.50
2015,11,17,13,57,57.90
2015,11,17,13,58,46.70
2015,11,17,13,59,41.80
2015,11,17,14,00,46.70
2015,11,17,14,01,48.30
2015,11,17,14,02,53.10
2015,11,17,14,03,43.50
2015,11,17,14,04,48.30
2015,11,17,14,05,35.40
2015,11,17,14,06,45.10
2015,11,17,14,07,45.10
2015,11,17,14,08,46.70
2015,11,17,14,09,48.30
2015,11,17,14,10,37.00
2015,11,17,14,11,46.70
2015,11,17,14,12,51.50
2015,11,17,14,13,33.80
2015,11,17,14,14,30.60
2015,11,17,14,15,33.80
2015,11,17,14,16,45.10
2015,11,17,14,17,32.20
2015,11,17,14,18,32.20
2015,11,17,14,19,38.60
2015,11,17,14,20,48.30
2015,11,17,14,21,38.60
2015,11,17,14,22,40.20
2015,11,17,14,23,38.60
2015,11,17,14,24,43.50
2015,11,17,14,25,38.60
2015,11,17,14,26,35.40
2015,11,17,14,27,43.50
2015,11,17,14,28,35.40
2015,11,17,14,29,43.50
2015,11,17,14,30,33.80
2015,11,17,14,31,41.80
2015,11,17,14,32,37.00
2015,11,17,14,33,37.00
2015,11,17,14,34,30.60
2015,11,17,14,35,24.20
2015,11,17,14,36,38.60
2015,11,17,14,37,24.20
2015,11,17,14,38,19.30
2015,11,17,14,39,24.20
2015,11,17,14,40,37.00
2015,11,17,14,41,33.80
2015,11,17,14,42,41.80
2015,11,17,14,43,41.80
2015,11,17,14,44,38.60
2015,11,17,14,45,33.80
2015,11,17,14,46,53.10
2015,11,17,14,47,35.40
2015,11,17,14,48,38.60
2015,11,17,14,49,48.30
2015,11,17,14,50,27.40
2015,11,17,14,51,38.60
2015,11,17,14,52,46.70
2015,11,17,14,53,29.00
2015,11,17,14,54,25.70
2015,11,17,14,55,40.20
2015,11,17,14,56,38.60
2015,11,17,14,57,40.20
2015,11,17,14,58,51.50
2015,11,17,14,59,29.00
2015,11,17,15,00,33.80
2015,11,17,15,01,41.80
2015,11,17,15,02,29.00
2015,11,17,15,03,38.60
2015,11,17,15,04,33.80
2015,11,17,15,05,20.90
2015,11,17,15,06,27.40
2015,11,17,15,07,17.70
2015,11,17,15,08,17.70
2015,11,17,15,09,16.10
2015,11,17,15,10,20.90
2015,11,17,15,11,22.50
2015,11,17,15,12,27.40
2015,11,17,15,13,25.70
2015,11,17,15,14,27.40
2015,11,17,15,15,32.20
2015,11,17,15,16,35.40
2015,11,17,15,17,37.00
2015,11,17,15,18,25.70
2015,11,17,15,19,29.00
2015,11,17,15,20,32.20
2015,11,17,15,21,25.70
2015,11,17,15,22,30.60
2015,11,17,15,23,27.40
2015,11,17,15,24,35.40
2015,11,17,15,25,35.40
2015,11,17,15,26,25.70
2015,11,17,15,27,27.40
2015,11,17,15,28,35.40
2015,11,17,15,29,38.60
2015,11,17,15,30,17.70
2015,11,17,15,31,29.00
2015,11,17,15,32,25.70
2015,11,17,15,33,20.90
2015,11,17,15,34,22.50
2015,11,17,15,35,24.20
2015,11,17,15,36,38.60
2015,11,17,15,37,25.70
2015,11,17,15,38,20.90
2015,11,17,15,39,19.30
2015,11,17,15,40,32.20
2015,11,17,15,41,27.40
2015,11,17,15,42,27.40
2015,11,17,15,43,27.40
2015,11,17,15,44,20.90
2015,11,17,15,45,14.50
2015,11,17,15,46,17.70
2015,11,17,15,47,20.90
2015,11,17,15,48,20.90
2015,11,17,15,49,16.10
2015,11,17,15,50,24.20
2015,11,17,15,51,22.50
2015,11,17,15,52,16.10
2015,11,17,15,53,20.90
2015,11,17,15,54,20.90
2015,11,17,15,55,20.90
2015,11,17,15,56,16.10
2015,11,17,15,57,20.90
2015,11,17,15,58,17.70
2015,11,17,15,59,29.00
2015,11,17,16,00,16.10
2015,11,17,16,01,12.90
2015,11,17,16,02,16.10
2015,11,17,16,03,22.50
2015,11,17,16,04,20.90
2015,11,17,16,05,17.70
2015,11,17,16,06,19.30
2015,11,17,16,07,19.30
2015,11,17,16,08,19.30
2015,11,17,16,09,20.90
2015,11,17,16,10,17.70
2015,11,17,16,11,22.50
2015,11,17,16,12,24.20
2015,11,17,16,13,19.30
2015,11,17,16,14,20.90
2015,11,17,16,15,22.50
2015,11,17,16,16,27.40
2015,11,17,16,17,33.80
2015,11,17,16,18,38.60
2015,11,17,16,19,30.60
2015,11,17,16,20,35.40
2015,11,17,16,21,29.00
2015,11,17,16,22,30.60
2015,11,17,16,23,32.20
2015,11,17,16,24,30.60
2015,11,17,16,25,33.80
2015,11,17,16,26,27.40
2015,11,17,16,27,25.70
2015,11,17,16,28,19.30
2015,11,17,16,29,22.50
2015,11,17,16,30,17.70
2015,11,17,16,31,22.50
2015,11,17,16,32,22.50
2015,11,17,16,33,22.50
2015,11,17,16,34,24.20
2015,11,17,16,35,24.20
2015,11,17,16,36,35.40
2015,11,17,16,37,33.80
2015,11,17,16,38,24.20
2015,11,17,16,39,25.70
2015,11,17,16,40,20.90
2015,11,17,16,41,22.50
2015,11,17,16,42,29.00
2015,11,17,16,43,41.80
2015,11,17,16,44,30.60
2015,11,17,16,45,37.00
2015,11,17,16,46,25.70
2015,11,17,16,47,27.40
2015,11,17,16,48,37.00
2015,11,17,16,49,25.70
2015,11,17,16,50,27.40
2015,11,17,16,51,37.00
2015,11,17,16,52,35.40
2015,11,17,16,53,27.40
2015,11,17,16,54,30.60
2015,11,17,16,55,33.80
2015,11,17,16,56,19.30
2015,11,17,16,57,22.50
2015,11,17,16,58,24.20
2015,11,17,16,59,20.90
2015,11,17,17,00,32.20
2015,11,17,17,01,25.70
2015,11,17,17,02,27.40
2015,11,17,17,03,40.20
2015,11,17,17,04,37.00
2015,11,17,17,05,24.20
2015,11,17,17,06,25.70
2015,11,17,17,07,24.20
2015,11,17,17,08,24.20
2015,11,17,17,09,11.30
2015,11,17,17,10,22.50
2015,11,17,17,11,29.00
2015,11,17,17,12,22.50
2015,11,17,17,13,24.20
2015,11,17,17,14,35.40
2015,11,17,17,15,29.00
2015,11,17,17,16,17.70
2015,11,17,17,17,25.70
2015,11,17,17,18,22.50
2015,11,17,17,19,25.70
2015,11,17,17,20,25.70
2015,11,17,17,21,22.50
2015,11,17,17,22,33.80
2015,11,17,17,23,24.20
2015,11,17,17,24,22.50
2015,11,17,17,25,20.90
2015,11,17,17,26,19.30
2015,11,17,17,27,30.60
2015,11,17,17,28,25.70
2015,11,17,17,29,22.50
2015,11,17,17,30,25.70
2015,11,17,17,31,22.50
2015,11,17,17,32,35.40
2015,11,17,17,33,33.80
2015,11,17,17,34,32.20
2015,11,17,17,35,35.40
2015,11,17,17,36,30.60
2015,11,17,17,37,46.70
2015,11,17,17,38,40.20
2015,11,17,17,39,40.20
2015,11,17,17,40,49.90
2015,11,17,17,41,33.80
2015,11,17,17,42,46.70
2015,11,17,17,43,41.80
2015,11,17,17,44,40.20
2015,11,17,17,45,33.80
2015,11,17,17,46,32.20
2015,11,17,17,47,37.00
2015,11,17,17,48,35.40
2015,11,17,17,49,17.70
2015,11,17,17,50,24.20
2015,11,17,17,51,24.20
2015,11,17,17,52,30.60
2015,11,17,17,53,24.20
2015,11,17,17,54,32.20
2015,11,17,17,55,30.60
2015,11,17,17,56,24.20
2015,11,17,17,57,22.50
2015,11,17,17,58,19.30
2015,11,17,17,59,25.70
2015,11,17,18,00,25.70
2015,11,17,18,01,29.00
2015,11,17,18,02,25.70
2015,11,17,18,03,20.90
2015,11,17,18,04,22.50
2015,11,17,18,05,24.20
2015,11,17,18,06,22.50
2015,11,17,18,07,25.70
2015,11,17,18,08,22.50
2015,11,17,18,09,22.50
2015,11,17,18,10,17.70
2015,11,17,18,11,17.70
2015,11,17,18,12,27.40
2015,11,17,18,13,33.80
2015,11,17,18,14,24.20
2015,11,17,18,15,33.80
2015,11,17,18,16,29.00
2015,11,17,18,17,30.60
2015,11,17,18,18,19.30
2015,11,17,18,19,29.00
2015,11,17,18,20,30.60
2015,11,17,18,21,30.60
2015,11,17,18,22,35.40
2015,11,17,18,23,33.80
2015,11,17,18,24,29.00
2015,11,17,18,25,30.60
2015,11,17,18,26,29.00
2015,11,17,18,27,27.40
2015,11,17,18,28,32.20
2015,11,17,18,29,32.20
2015,11,17,18,30,24.20
2015,11,17,18,31,27.40
2015,11,17,18,32,35.40
2015,11,17,18,33,24.20
2015,11,17,18,34,25.70
2015,11,17,18,35,30.60
2015,11,17,18,36,24.20
2015,11,17,18,37,29.00
2015,11,17,18,38,29.00
2015,11,17,18,39,25.70
2015,11,17,18,40,27.40
2015,11,17,18,41,22.50
2015,11,17,18,42,27.40
2015,11,17,18,43,24.20
2015,11,17,18,44,20.90
2015,11,17,18,45,22.50
2015,11,17,18,46,19.30
2015,11,17,18,47,20.90
2015,11,17,18,48,25.70
2015,11,17,18,49,20.90
2015,11,17,18,50,27.40
2015,11,17,18,51,33.80
2015,11,17,18,52,29.00
2015,11,17,18,53,20.90
2015,11,17,18,54,24.20
2015,11,17,18,55,20.90
2015,11,17,18,56,20.90
2015,11,17,18,57,20.90
2015,11,17,18,58,19.30
2015,11,17,18,59,24.20
2015,11,17,19,00,40.20
2015,11,17,19,01,25.70
2015,11,17,19,02,24.20
2015,11,17,19,03,22.50
2015,11,17,19,04,24.20
2015,11,17,19,05,27.40
2015,11,17,19,06,25.70
2015,11,17,19,07,22.50
2015,11,17,19,08,29.00
2015,11,17,19,09,20.90
2015,11,17,19,10,27.40
2015,11,17,19,11,20.90
2015,11,17,19,12,35.40
2015,11,17,19,13,24.20
2015,11,17,19,14,22.50
2015,11,17,19,15,24.20
2015,11,17,19,16,27.40
2015,11,17,19,17,20.90
2015,11,17,19,18,17.70
2015,11,17,19,19,20.90
2015,11,17,19,20,20.90
2015,11,17,19,21,17.70
2015,11,17,19,22,17.70
2015,11,17,19,23,24.20
2015,11,17,19,24,24.20
2015,11,17,19,25,25.70
2015,11,17,19,26,17.70
2015,11,17,19,27,14.50
2015,11,17,19,28,19.30
2015,11,17,19,29,22.50
2015,11,17,19,30,22.50
2015,11,17,19,31,24.20
2015,11,17,19,32,19.30
2015,11,17,19,33,16.10
2015,11,17,19,34,24.20
2015,11,17,19,35,24.20
2015,11,17,19,36,11.30
2015,11,17,19,37,9.60
2015,11,17,19,38,8.10
2015,11,17,19,39,6.40
2015,11,17,19,40,11.30
2015,11,17,19,41,8.10
2015,11,17,19,42,6.40
2015,11,17,19,43,16.10
2015,11,17,19,44,9.60
2015,11,17,19,45,20.90
2015,11,17,19,46,19.30
2015,11,17,19,47,20.90
2015,11,17,19,48,24.20
2015,11,17,19,49,22.50
2015,11,17,19,50,17.70
2015,11,17,19,51,17.70
2015,11,17,19,52,22.50
2015,11,17,19,53,27.40
2015,11,17,19,54,29.00
2015,11,17,19,55,24.20
2015,11,17,19,56,20.90
2015,11,17,19,57,24.20
2015,11,17,19,58,29.00
2015,11,17,19,59,29.00
2015,11,17,20,00,24.20
2015,11,17,20,01,27.40
2015,11,17,20,02,25.70
2015,11,17,20,03,27.40
2015,11,17,20,04,24.20
2015,11,17,20,05,24.20
2015,11,17,20,06,27.40
2015,11,17,20,07,29.00
2015,11,17,20,08,27.40
2015,11,17,20,09,27.40
2015,11,17,20,10,30.60
2015,11,17,20,11,25.70
2015,11,17,20,12,35.40
2015,11,17,20,13,25.70
2015,11,17,20,14,29.00
2015,11,17,20,15,20.90
2015,11,17,20,16,40.20
2015,11,17,20,17,25.70
2015,11,17,20,18,22.50
2015,11,17,20,19,29.00
2015,11,17,20,20,30.60
2015,11,17,20,21,19.30
2015,11,17,20,22,16.10
2015,11,17,20,23,22.50
2015,11,17,20,24,17.70
2015,11,17,20,25,17.70
2015,11,17,20,26,17.70
2015,11,17,20,27,29.00
2015,11,17,20,28,24.20
2015,11,17,20,29,19.30
2015,11,17,20,30,19.30
2015,11,17,20,31,22.50
2015,11,17,20,32,19.30
2015,11,17,20,33,16.10
2015,11,17,20,34,16.10
2015,11,17,20,35,22.50
2015,11,17,20,36,17.70
2015,11,17,20,37,16.10
2015,11,17,20,38,19.30
2015,11,17,20,39,19.30
2015,11,17,20,40,14.50
2015,11,17,20,41,17.70
2015,11,17,20,42,16.10
2015,11,17,20,43,19.30
2015,11,17,20,44,17.70
2015,11,17,20,45,19.30
2015,11,17,20,46,17.70
2015,11,17,20,47,16.10
2015,11,17,20,48,14.50
2015,11,17,20,49,19.30
2015,11,17,20,50,24.20
2015,11,17,20,51,11.30
2015,11,17,20,52,17.70
2015,11,17,20,53,17.70
2015,11,17,20,54,14.50
2015,11,17,20,55,22.50
2015,11,17,20,56,22.50
2015,11,17,20,57,19.30
2015,11,17,20,58,16.10